Location: Grieser Field
(39.7333°N, 81.7975°W)
Time: 08:04:35
(UTC-04:00)

MOS 1-B - Visible Passes

Search period start: 29 April 2016 00:00
Search period end: 09 May 2016 00:00
Orbit: 905 x 914 km, 99.2° (Epoch: 28 April)

Date Brightness Start Highest point End Pass type
(mag) Time Alt. Az. Time Alt. Az. Time Alt. Az.
29 Apr 4.4 04:17:51 10° NNE 04:23:40 78° ESE 04:26:37 30° S visible
29 Apr 6.0 06:01:28 10° NNW 06:04:48 16° WNW 06:08:08 10° W visible
30 Apr 6.9 02:45:31 10° ENE 02:46:32 10° E 02:47:32 10° E visible
30 Apr 4.3 04:23:19 10° NNE 04:29:08 86° ESE 04:32:16 29° SSW visible
01 May 6.7 02:49:56 10° ENE 02:52:04 12° E 02:54:13 10° ESE visible
01 May 4.3 04:28:47 10° NNE 04:34:35 86° WNW 04:37:53 27° SSW visible
02 May 6.7 02:54:48 10° ENE 02:57:36 14° E 03:00:15 10° ESE visible
02 May 4.3 04:34:16 10° NNE 04:40:03 78° WNW 04:43:31 25° SSW visible
03 May 6.6 02:59:49 10° NE 03:03:09 15° E 03:05:53 11° ESE visible
03 May 4.3 04:39:44 10° N 04:45:30 70° WNW 04:49:08 23° SSW visible
04 May 6.5 03:04:56 10° NE 03:08:40 17° E 03:11:30 13° SE visible
04 May 4.4 04:45:14 10° N 04:50:56 63° WNW 04:54:46 21° SSW visible
05 May 6.4 03:10:07 10° NE 03:14:11 19° E 03:17:07 14° SE visible
05 May 4.5 04:50:44 10° N 04:56:23 57° WNW 05:00:23 20° SW visible
06 May 6.2 03:15:21 10° NE 03:19:42 22° E 03:22:44 15° SE visible
06 May 4.6 04:56:14 10° N 05:01:49 51° WNW 05:06:00 18° SW visible
07 May 6.1 03:20:37 10° NE 03:25:13 24° E 03:28:21 16° SE visible
07 May 4.8 05:01:45 10° N 05:07:15 46° WNW 05:11:36 16° SW visible
08 May 6.0 03:25:54 10° NE 03:30:44 27° E 03:33:58 17° SE visible
08 May 4.9 05:07:18 10° N 05:12:41 42° WNW 05:17:14 14° SW visible
